Regional Weather Roundup
Issued by NWS

Home | Current Version | Previous Version | Text Only | Print | Product List | Glossary On
Versions: 1 2 3 4 5 6 7 8 9 10 11 12 13 14 15 16 17 18 19 20 21 22 23 24 25 26 27 28
000
ASUS45 KSLC 281510
RWRUT

UTAH REGIONAL WEATHER ROUNDUP
NATIONAL WEATHER SERVICE SALT LAKE CITY UT
900 AM MDT THU JUL 28 2016

UTZ001>011-023>025-281600-

NORTHERN UTAH

CITY           SKY/WX    TMP DP  RH WIND       PRES   REMARKS
BRIGHAM CITY     N/A     72  40  30 CALM      30.12R
HILL AFB       MOSUNNY   73  37  27 E12G18    30.13S
LOGAN          SUNNY     67  49  52 CALM      30.16R
OGDEN          SUNNY     76  37  24 S3        30.12R
PROVO AIRPORT  NOT AVBL
SALT LAKE CITY MOSUNNY   82  40  22 CALM      30.10R
VERNAL         CLOUDY    71  32  23 CALM      30.19R
WENDOVER       SUNNY     84  36  17 CALM      30.12R
HEBER CITY     MOSUNNY   59  37  44 CALM      30.23S
WEST JORDAN    SUNNY     81  39  22 S8        30.13R

$$

UTZ012>022-026-027-281600-

SOUTHERN/CENTRAL UTAH

CITY           SKY/WX    TMP DP  RH WIND       PRES   REMARKS
BLANDING       SUNNY     81  36  19 S3        30.32R
BRYCE CANYON   MOSUNNY   67  37  33 W5        30.39S
CEDAR CITY     MOSUNNY   79  36  21 NE6       30.19R
DELTA          MOSUNNY   77  32  19 E6        30.13S
MILFORD        SUNNY     74  31  20 S7        30.15R
MOAB/CYNLANDS  SUNNY     84  30  14 SE3       30.09S
PRICE          SUNNY     75  25  15 SW3       30.23R
ST GEORGE      MOSUNNY   90  43  19 SE5       29.99R

$$

REGIONAL REPORTS     COLORADO/ARIZONA

CITY           SKY/WX    TMP DP  RH WIND       PRES   REMARKS
CRAIG, CO      SUNNY     62  36  37 CALM      30.29S
GRAND JUNCTION SUNNY     76  34  21 SE10      30.15S
RIFLE          SUNNY     69  39  33 N3        30.24S
MONTROSE       SUNNY     73  40  30 N6        30.25R
CORTEZ         SUNNY     76  44  32 CALM      30.25S
PAGE, AZ       PTSUNNY   84  35  17 S8        30.07S
GRAND CANYON   SUNNY     77  44  30 S5        30.31S
KINGMAN        MOSUNNY   92  50  23 S6        30.02R
FLAGSTAFF      SUNNY     70  53  54 SW14      30.36R

$$

REGIONAL REPORTS    NEVADA/IDAHO/WYOMING

CITY           SKY/WX    TMP DP  RH WIND       PRES   REMARKS
LAS VEGAS, NV  MOSUNNY   96  46  18 SE3       29.85R HX  92
ELY            SUNNY     68  27  21 S9        30.29S
ELKO           SUNNY     70  32  24 E3        30.22R
POCATELLO, ID  SUNNY     68  45  43 NW3       30.19R
BURLEY         SUNNY     69  50  50 CALM      30.16R
EVANSTON, WY   CLOUDY    71  30  21 CALM      30.34R
ROCK SPRINGS   SUNNY     67  48  50 E12       30.32F
KEMMERER         N/A     68  32  26 NW3       30.35R

$$




USA.gov is the U.S. government's official web portal to all federal, state and local government web resources and services.